Regional Weather Roundup
Issued by NWS Cleveland, OH

Home | Current Version | Previous Version | Text Only | Print | Product List | Glossary Off
Versions: 1 2 3 4 5 6 7 8 9 10 11 12 13 14 15 16 17 18 19 20 21 22 23 24 25 26 27 28 29 30 31 32 33 34 35 36 37 38 39 40 41 42 43 44 45 46 47 48 49 50

000
ASUS41 KCLE 071802
RWRCLE
OHIO REGIONAL WEATHER ROUNDUP
NATIONAL WEATHER SERVICE CLEVELAND, OH
100 PM EST SUN FEB 07 2016

NOTE: "FAIR" INDICATES FEW OR NO CLOUDS BELOW 12,000 FEET WITH NO
SIGNIFICANT WEATHER AND/OR OBSTRUCTIONS TO VISIBILITY.

OHZ001>008-015>018-024>027-034-035-043-044-071900-
   NORTHWEST OHIO

CITY           SKY/WX    TMP DP  RH WIND       PRES   REMARKS
DEFIANCE       SUNNY     47  31  53 SW15G26   29.87F
FINDLAY        SUNNY     48  33  56 S14       29.91F
TOLEDO EXPRESS SUNNY     47  28  47 SW14G23   29.88F
TOLEDO EXEC    SUNNY     49  30  48 SW16G25   29.90F
LIMA           SUNNY     47  27  45 SW15      29.92F
$$

OHZ009>014-019>023-028>033-038-089-071900-
   NORTHEAST OHIO

CITY           SKY/WX    TMP DP  RH WIND       PRES   REMARKS
CLE-HOPKINS    MOSUNNY   49  27  42 S16       29.97F
CLE-LAKEFRONT  PTSUNNY   50  27  40 S17       29.94F
CUY CO. ARPT   PTSUNNY   41  28  60 S16       29.96F
LORAIN-ELYRIA  SUNNY     49  29  46 SW15      29.94F
ASHTABULA      SUNNY     43  27  53 S16G23    29.97F
AKRON-CANTON   MOSUNNY   47  25  42 SW10      29.98F
WOOSTER        SUNNY     46  29  51 SW12      29.97F
MANSFIELD      SUNNY     49  30  48 S17       29.95F
YOUNGSTOWN     MOSUNNY   47  25  42 S13       29.98F
$$

OHZ042-051>053-060>062-070>072-077>081-071900-
  SOUTHWEST OHIO

CITY           SKY/WX    TMP DP  RH WIND       PRES   REMARKS
CINC-COVINGTON MOSUNNY   50  23  34 SW12G18   30.01F
CINC-LUNKEN    CLOUDY    51  25  36 SW16      30.03F
HAMILTON       CLOUDY    52  24  33 SW10G18   30.02F
DAYTON         CLOUDY    48  25  40 S18G25    29.97F
WRIGHT-PAT AFB NOT AVBL
DAYTON GENERAL SUNNY     50  23  34 S14       29.99F
WILMINGTON     MOSUNNY   47  26  44 SW12      30.00F
$$

OHZ036-037-039>041-045>050-054>059-063>069-073>076-082>088-071900-
  CENTRAL AND SOUTHEAST OHIO

CITY           SKY/WX    TMP DP  RH WIND       PRES   REMARKS
COLUMBUS       PTSUNNY   48  26  42 S9        30.00F
OSU AIRPORT    SUNNY     48  26  42 SW10      29.98F
BOLTON FIELD   SUNNY     46  28  49 SW10      30.01F
RICKENBACK AFB NOT AVBL
NEWARK         SUNNY     49  27  42 SW13      30.00F
MARION         SUNNY     49  29  46 S18       29.96F
LANCASTER      SUNNY     50  27  40 SW10      30.01F
ZANESVILLE     SUNNY     51  26  37 SW10      30.01F
NEW PHILLY     SUNNY     47  24  40 S9G17     30.01F
$$



USA.gov is the U.S. government's official web portal to all federal, state and local government web resources and services.